GRAVITY-1 R/B

基本信息
目录编号:
58761
目录名称:
GRAVITY-1 R/B
国际标识:
2024-009D
轨道中心:
EARTH
物体状态:
已陨落(2024-06-30)
发射日期:
2024-01-11 UTC
国别:
中国 (CN)
轨道信息
数据来源: 国际轨道数据
星历时间: 2024-06-30T11:44:24+0800
半长轴: 6515.721km
偏心率: 0.0009603
轨道倾角: 49.826°
近地点辐角: 332.720°
升交点赤经: 331.872°
平近点角: 180.002°
近地点: 131.328km
远地点: 143.844km
周期: 87.238分钟
每日圈数: 16.506657
详细信息
发射场:
YSLA
轨道高度:
LEO
数据来源:
AOE Integration Group
参考系:
TEME
时间系统:
UTC
历元类型:
SGP4
2D轨道图
3D轨道图
轨道高度分析图
轨道倾角分析图
轨道综合分析图
查看轨道综合分析图